Change the Weather History Date:

Thursday, July 25, 2013

  Actual Average Record
Temperature  
Mean Temperature 36 °F -  
Max Temperature 39 °F - - ()
Min Temperature 32 °F - - ()
Degree Days  
Heating Degree Days 30    
Moisture  
Dew Point -    
Average Humidity    
Maximum Humidity    
Minimum Humidity    
Precipitation  
Precipitation 0.00 in - - ()
Sea Level Pressure  
Sea Level Pressure 29.80 in    
Wind  
Wind Speed 29 mph ()    
Max Wind Speed 40 mph    
Max Gust Speed 47 mph    
T = Trace of Precipitation, MM = Missing Value Source: Averaged Metar Reports

Daily Weather History Graph

Daily Weather History Graph

Search for Another Location

Airport or City:

Trip Planner

Search our weather history database for the weather conditions in past years. The results will help you decide how hot, cold, wet, or windy it might be!

Date:

Astronomy

Jul. 25, 2013 Rise Set
Actual Time 4:11 AM ADT 10:32 PM ADT
Civil Twilight 2:30 AM ADT 12:09 AM ADT
Nautical Twilight Sun does not rise Sun does not rise
Astronomical Twilight Sun does not rise Sun does not rise
Moon 10:19 PM ADT (7/25) 9:15 AM ADT (7/25)
Length of Visible Light 21h 38m
Length of Day
18h 21m
Waning Gibbous, 89% of the Moon is Illuminated
Jul 25
Waning Gibbous
Jul 29
Last Quarter
Aug 6
New
Aug 14
First Quarter
Aug 20
Full

Hourly Weather History & Observations

Time (ADT) Temp. Windchill Dew Point Humidity Pressure Visibility Wind Dir Wind Speed Gust Speed Precip Events Conditions
12:00 AM 32.0 °F 17.9 °F - N/A% 29.97 in - NE 28.8 mph - N/A Snow Light Snow
12:08 AM 32.0 °F 17.9 °F - N/A% 29.85 in - NE 28.8 mph - N/A   Clear
12:12 AM 32.0 °F 18.1 °F - N/A% 29.85 in - NE 27.6 mph - N/A   Clear
12:47 AM 32.0 °F 17.4 °F - N/A% 29.84 in - NE 31.1 mph 36.8 mph N/A Snow Light Snow
1:00 AM 32.0 °F 17.9 °F - N/A% 29.95 in - NE 28.8 mph - N/A Snow Light Snow
2:00 AM 32.0 °F 17.4 °F - N/A% 29.94 in - NNE 31.1 mph - N/A Snow Light Snow
2:37 AM 32.0 °F 17.9 °F - N/A% 29.82 in - NE 28.8 mph - N/A Snow Light Snow
3:00 AM 32 °F - - % 29.94 in - NNE 29.9 mph - -  
3:00 AM 32.0 °F 17.4 °F - N/A% 29.94 in - NNE 31.1 mph - N/A Snow Light Snow
3:17 AM 32.0 °F 18.1 °F - N/A% 29.83 in - NE 27.6 mph - N/A Snow Light Snow
3:23 AM 32.0 °F 18.1 °F - N/A% 29.83 in - NE 27.6 mph - N/A   Clear
4:00 AM 33.8 °F 20.1 °F - N/A% 29.93 in - NE 29.9 mph - N/A   Clear
4:02 AM 33.8 °F 20.5 °F - N/A% 29.82 in - NE 27.6 mph 33.4 mph N/A   Clear
4:10 AM 33.8 °F 20.1 °F - N/A% 29.82 in - NE 29.9 mph - N/A Snow Light Snow
4:18 AM 33.8 °F 19.6 °F - N/A% 29.82 in - NNE 32.2 mph - N/A   Clear
4:24 AM 33.8 °F 19.6 °F - N/A% 29.82 in - NNE 32.2 mph - N/A Snow Light Snow
4:55 AM 33.8 °F 20.1 °F - N/A% 29.81 in - NNE 29.9 mph - N/A   Clear
4:57 AM 33.8 °F 20.5 °F - N/A% 29.82 in - NNE 27.6 mph 33.4 mph N/A Snow Light Snow
5:00 AM 33.8 °F 20.8 °F - N/A% 29.93 in - NNE 26.5 mph 32.2 mph N/A Snow Light Snow
6:00 AM 33.8 °F 20.5 °F - N/A% 29.93 in - NNE 27.6 mph - N/A Snow Light Snow
7:00 AM 32.0 °F 18.1 °F - N/A% 29.92 in - NE 27.6 mph - N/A Snow Light Snow
8:00 AM 33.8 °F 21.0 °F - N/A% 29.91 in - NNE 25.3 mph 31.1 mph N/A Snow Light Snow
8:20 AM 33.8 °F 20.3 °F - N/A% 29.78 in - NE 28.8 mph 35.7 mph N/A Rain Light Rain
9:00 AM 34 °F - - % 29.90 in - NNE 28.8 mph - -  
9:00 AM 33.8 °F 20.5 °F - N/A% 29.90 in - NE 27.6 mph - N/A Rain Light Rain
10:00 AM 33.8 °F 19.4 °F - N/A% 29.88 in - NE 33.4 mph 39.1 mph N/A Rain Light Rain
11:00 AM 33.8 °F 19.9 °F - N/A% 29.87 in - NNE 31.1 mph 38.0 mph N/A Rain Light Rain
12:00 PM 33.8 °F 19.6 °F - N/A% 29.84 in - NE 32.2 mph - N/A Rain Light Rain
1:00 PM 33.8 °F 18.5 °F - N/A% 29.80 in - NE 39.1 mph 44.9 mph N/A Rain Light Rain
1:20 PM 35.6 °F 21.7 °F - N/A% 29.69 in - NNE 34.5 mph 44.9 mph N/A Snow Light Snow
2:00 PM 35.6 °F 22.1 °F - N/A% 29.80 in - NE 32.2 mph 41.4 mph N/A Snow Light Snow
3:00 PM 35.6 °F 21.5 °F - N/A% 29.80 in - NE 35.7 mph - N/A Snow Light Snow
3:34 PM 35.6 °F 21.5 °F - N/A% 29.69 in - NNE 35.7 mph - N/A Rain Light Rain
4:00 PM 35.6 °F 22.1 °F - N/A% 29.81 in - NNE 32.2 mph - N/A Rain Light Rain
4:34 PM 35.6 °F 21.5 °F - N/A% 29.69 in - NE 35.7 mph 42.6 mph N/A Snow Light Snow
5:00 PM 35.6 °F 22.1 °F - N/A% 29.80 in - NNE 32.2 mph 38.0 mph N/A Snow Light Snow
5:17 PM 35.6 °F 21.5 °F - N/A% 29.68 in - NNE 35.7 mph - N/A Rain Light Rain
5:48 PM 35.6 °F 22.1 °F - N/A% 29.69 in - NNE 32.2 mph - N/A Snow Light Snow
5:49 PM 35.6 °F 22.1 °F - N/A% 29.69 in - NNE 32.2 mph - N/A   Clear
6:00 PM 37.4 °F 24.0 °F - N/A% 29.79 in - North 35.7 mph 42.6 mph N/A   Clear
7:00 PM 37.4 °F 24.0 °F - N/A% 29.80 in - NNE 35.7 mph 41.4 mph N/A   Clear
7:11 PM 37.4 °F 23.6 °F - N/A% 29.68 in - NNE 38.0 mph 43.7 mph N/A Rain Light Rain
7:29 PM 37.4 °F 24.0 °F - N/A% 29.68 in - NNE 35.7 mph 43.7 mph N/A   Clear
7:30 PM 37.4 °F 23.8 °F - N/A% 29.69 in - NNE 36.8 mph 43.7 mph N/A Rain Light Rain
7:31 PM 37.4 °F 23.8 °F - N/A% 29.69 in - NNE 36.8 mph 43.7 mph N/A   Clear
7:32 PM 37.4 °F 23.6 °F - N/A% 29.68 in - NNE 38.0 mph 43.7 mph N/A Rain Light Rain
7:39 PM 37.4 °F 24.0 °F - N/A% 29.69 in - NNE 35.7 mph 44.9 mph N/A   Clear
7:40 PM 37.4 °F 24.2 °F - N/A% 29.69 in - NNE 34.5 mph 44.9 mph N/A Rain Light Rain
8:00 PM 37.4 °F 23.5 °F - N/A% 29.79 in - NNE 39.1 mph 47.2 mph N/A Rain Light Rain
8:28 PM 37.4 °F 23.3 °F - N/A% 29.69 in - NNE 40.3 mph - N/A   Clear
8:42 PM 37.4 °F 24.6 °F - N/A% 29.70 in - NNE 32.2 mph 41.4 mph N/A   Clear
9:00 PM 38 °F - - % 29.81 in - NNE 35.7 mph - -  
9:00 PM 39.2 °F 26.8 °F - N/A% 29.81 in - NNE 33.4 mph 41.4 mph N/A   Clear
9:13 PM 39.2 °F 25.8 °F - N/A% 29.70 in - North 40.3 mph - N/A   Clear
9:30 PM 39.2 °F 26.6 °F - N/A% 29.71 in - NNE 34.5 mph - N/A   Overcast
9:42 PM 39.2 °F 26.5 °F - N/A% 29.71 in - NNE 35.7 mph - N/A   Overcast
10:00 PM 39.2 °F 27.4 °F - N/A% 29.83 in - NNE 29.9 mph 40.3 mph N/A   Clear
10:18 PM 39.2 °F 27.0 °F - N/A% 29.72 in - NNE 32.2 mph 38.0 mph N/A   Clear
10:37 PM 39.2 °F 27.0 °F - N/A% 29.72 in - NNE 32.2 mph 40.3 mph N/A   Clear
10:48 PM 39.2 °F 26.5 °F - N/A% 29.73 in - NNE 35.7 mph 43.7 mph N/A Rain Light Rain
10:53 PM 39.2 °F 27.8 °F - N/A% 29.73 in - NNE 27.6 mph 43.7 mph N/A   Clear
11:00 PM 39.2 °F 27.4 °F - N/A% 29.84 in - NNE 29.9 mph 36.8 mph N/A   Clear
11:01 PM 39.2 °F 27.4 °F - N/A% 29.73 in - NNE 29.9 mph 36.8 mph N/A   Clear
11:21 PM 39.2 °F 28.5 °F - N/A% 29.74 in - NNE 24.2 mph 33.4 mph N/A Rain Light Rain